Location: Chamboirat
(46.2320°N, 3.0109°E)
Time: 04:21:00
(UTC+00:00)

Daily predictions for brighter satellites

Satellite Brightness Start Highest point End
(mag) Time Altitude Azimuth Time Altitude Azimuth Time Altitude Azimuth
ATLAS 3B R/B 3.8 03:24:25 39° ENE 03:24:25 39° ENE 03:29:50 10° ESE
COSMOS 2455 4.4 03:31:38 29° NE 03:31:38 29° NE 03:34:32 10° NE
Lacrosse 5 4.4 03:30:41 18° E 03:30:41 18° E 03:32:37 10° ENE
NOSS 3-2 (C) 4.4 03:32:29 58° ESE 03:32:29 58° ESE 03:39:09 10° SE
Cosmos 2263 Rocket 3.8 03:42:30 30° ESE 03:42:30 30° ESE 03:45:41 10° SE
CENTAUR R/B 3.2 03:40:39 70° NE 03:40:48 70° NE 03:49:29 10° SE
Cosmos 2322 Rocket 4.4 03:38:51 14° SE 03:41:50 21° E 03:45:59 10° NE
NOSS 3-4 (A) 4.4 03:45:43 42° E 03:45:43 42° E 03:50:55 10° NE
NOSS 3-4 (C) 4.4 03:45:47 42° E 03:45:47 42° E 03:51:01 10° NE
USA 215 4.1 03:43:59 10° E 03:49:59 40° NNE 03:50:01 40° NNE
Cosmos 2341 Rocket 4.3 04:06:03 10° N 04:12:16 64° ENE 04:18:25 10° SSE
Lacrosse 5 rocket 3.7 04:17:12 20° NNE 04:17:12 20° NNE 04:19:33 10° ENE
ALOS 4.4 04:13:44 10° NE 04:17:35 25° E 04:21:24 10° SSE
ATLAS 2AS CENTAUR R/B 2.9 04:18:04 65° SW 04:19:31 89° SE 04:27:34 10° NE
Cosmos 2344 3.6 04:21:19 59° NW 04:21:21 59° NW 04:29:40 10° NE
SL-16 R/B 2.8 04:23:05 35° SSE 04:25:09 53° ESE 04:30:40 10° NE
Cosmos 2360 Rocket 4.4 04:21:26 10° SSE 04:25:52 24° ESE 04:30:18 10° NE
CZ-2C R/B 4.1 04:21:24 10° NNE 04:23:30 25° N 04:23:30 25° N
USA 32 4.5 04:23:03 10° N 04:28:16 59° E 04:33:26 10° SSE
COSMO-SKYMED 1 3.6 04:25:39 10° SE 04:29:46 43° ENE 04:30:21 41° NE
Cosmos 1980 Rocket 3.3 04:34:10 32° N 04:34:10 32° N 04:37:26 10° NNE
Gbstr 26 Del rocket 4.2 04:31:35 61° SW 04:32:58 80° SSE 04:40:52 10° ENE
Cosmos 1697 Rocket 4.4 04:39:40 19° N 04:39:40 19° N 04:41:40 10° N
Cosmos 1680 Rocket 3.4 04:40:03 80° S 04:40:20 86° ESE 04:45:42 10° NNE
Cosmos 1371 Rocket 4.0 04:45:13 48° N 04:46:46 80° ENE 04:52:06 10° SSE
Meteor 1-16 Rocket 4.2 04:41:58 10° S 04:47:52 89° WNW 04:53:41 10° N
Meteor 2-10 3.9 04:47:46 37° SSW 04:49:59 85° W 04:55:16 10° N
Cosmos 1908 4.0 04:53:52 46° NNE 04:53:52 46° NNE 04:56:44 10° NNE
STARLINK 1033 4.1 04:55:15 49° NE 04:55:15 49° NE 04:58:10 10° ENE
Cosmos 1900 4.4 04:54:45 50° NNW 04:55:57 72° NE 05:00:51 10° SE
Cosmos 2112 Rocket 3.9 04:57:53 46° SW 04:59:30 77° WNW 05:04:53 10° NNE
Cosmos 2366 rocket 4.0 04:53:40 10° N 05:00:05 84° E 05:06:27 10° S
Orbus 7S? 3.7 05:07:25 53° SW 05:07:25 53° SW 05:13:22 10° SE
Lacrosse 5 1.7 05:09:55 50° WSW 05:11:16 80° NW 05:16:23 10° NE
Cosmos 1624 Rocket 3.8 05:11:20 33° NNW 05:13:41 71° WSW 05:18:50 10° S
ADEOS Rocket 3.9 05:08:44 10° SE 05:13:56 44° ENE 05:19:29 10° N
ATLAS 3B R/B 2.7 05:11:43 36° WNW 05:14:19 55° WSW 05:21:03 10° SSE
COSMOS 2455 3.6 05:14:47 31° NW 05:14:56 31° NW 05:20:15 10° NNE
Cosmos 2278 Rocket 4.5 05:13:44 10° N 05:17:38 18° NE 05:21:30 10° E
SKYMED 2 3.5 05:13:29 10° S 05:17:46 60° W 05:18:57 43° NW
Cosmos 1484 Rocket 4.4 05:14:18 10° N 05:15:40 21° N 05:15:40 21° N
STARLINK 1063 4.4 05:16:29 26° SSW 05:18:30 48° SE 05:22:30 10° ENE
STARLINK-65 4.5 05:18:24 33° NNW 05:18:34 33° N 05:22:15 10° ENE
RESURS DK-1 2.2 05:17:24 29° SSW 05:19:27 90° NNW 05:23:38 10° NNE
STARLINK 1044 3.6 05:21:01 53° NW 05:21:10 54° NNW 05:24:58 10° NE
STARLINK 1064 4.3 05:21:16 24° SSW 05:23:27 52° SE 05:27:29 10° ENE
STARLINK 1031 3.6 05:23:31 51° NW 05:23:44 52° NNW 05:27:27 10° NE
Cosmos 2263 Rocket 2.9 05:24:16 32° WSW 05:24:16 32° WSW 05:28:58 10° SSW
STARLINK-41 4.5 05:25:05 29° NNW 05:25:17 29° N 05:28:37 10° NE
Cosmos 2322 Rocket 2.1 05:20:48 16° SW 05:25:21 65° WNW 05:31:03 10° NNE
BREEZE M DEB (TANK) 2.3 05:25:40 65° W 05:26:02 83° NNW 05:31:16 10° ENE
FALCON 9 DEB 3.8 05:27:11 39° SSW 05:27:11 39° SSW 05:30:18 10° SSE
STARLINK 1024 3.6 05:26:58 48° NW 05:27:19 50° NNW 05:31:03 10° NE
STARLINK 1041 4.1 05:26:03 23° SSW 05:28:25 57° SE 05:32:30 10° ENE
STARLINK 4.5 05:28:22 29° NNW 05:28:42 29° N 05:32:00 10° NE
Cosmos 2056 Rocket 3.6 05:26:40 23° NW 05:29:53 54° WSW 05:35:08 10° S
CENTAUR R/B 3.7 05:27:53 27° WNW 05:31:19 37° WSW 05:39:03 10° S
STARLINK 1028 4.0 05:32:07 29° N 05:32:07 29° N 05:34:20 10° NE
STARLINK 1021 4.0 05:32:17 29° N 05:32:17 29° N 05:34:30 10° NE
STARLINK 1019 4.0 05:32:31 29° N 05:32:31 29° N 05:34:41 10° NE
STARLINK 1012 4.0 05:32:42 29° N 05:32:42 29° N 05:34:56 10° NE
SL-8 Rocket 4.2 05:26:33 10° NNW 05:32:23 45° W 05:38:11 10° SSW
STARLINK 1010 4.0 05:32:56 29° N 05:32:56 29° N 05:35:10 10° NE
USA 215 3.3 05:26:00 10° ESE 05:32:32 80° NE 05:37:23 20° NW
STARLINK 1026 4.0 05:33:08 29° N 05:33:08 29° N 05:35:22 10° NE
Meteor 1-11 4.2 05:27:21 10° NNW 05:32:51 57° W 05:38:22 10° S
STARLINK 1013 4.0 05:33:21 29° N 05:33:21 29° N 05:35:37 10° NE
STARLINK 1009 4.0 05:33:34 29° N 05:33:34 29° N 05:35:50 10° NE
STARLINK 1038 4.0 05:30:49 22° SW 05:33:22 61° SE 05:37:28 10° ENE
STARLINK 1015 4.0 05:33:48 29° N 05:33:48 29° N 05:36:04 10° NE
STARLINK 1016 4.0 05:34:01 29° N 05:34:01 29° N 05:36:17 10° NE
STARLINK 1008 4.0 05:34:13 29° N 05:34:13 29° N 05:36:30 10° NE
STARLINK 1025 4.0 05:34:38 29° N 05:34:38 29° N 05:36:56 10° NE
STARLINK 1017 3.9 05:34:51 29° N 05:34:51 29° N 05:37:09 10° NE
STARLINK 1032 3.8 05:33:55 41° NW 05:34:35 46° NNW 05:38:17 10° NE
STARLINK 1023 3.9 05:35:04 29° N 05:35:04 29° N 05:37:23 10° NE
STARLINK 1007 3.9 05:35:17 29° N 05:35:17 29° N 05:37:37 10° NE
Cosmos 1844 Rocket 2.8 05:29:19 10° NNW 05:34:59 75° ENE 05:40:38 10° SSE
STARLINK 1048 3.9 05:35:31 29° N 05:35:31 29° N 05:37:51 10° NE
CZ-4B DEB 4.1 05:29:43 10° NNE 05:35:17 80° WNW 05:40:47 10° SSW
STARLINK 1049 3.9 05:35:44 29° N 05:35:44 29° N 05:38:04 10° NE
STARLINK 1051 3.9 05:35:57 29° N 05:35:57 29° N 05:38:18 10° NE
NOSS 3-4 (A) 3.8 05:33:11 28° W 05:35:54 44° NW 05:42:05 10° NNE
NOSS 3-4 (C) 3.8 05:33:14 28° W 05:36:00 44° NW 05:42:11 10° NNE
Alouette 2 Rocket 4.1 05:33:34 10° S 05:37:36 51° E 05:41:04 10° NNE
STARLINK 1011 3.8 05:37:24 38° WNW 05:38:14 45° NNW 05:41:55 10° NE
STARLINK 1046 3.9 05:35:36 20° SW 05:38:21 66° SE 05:42:27 10° ENE
STARLINK 1036 3.9 05:40:55 35° WNW 05:41:54 43° NNW 05:45:34 10° NE
STARLINK 1039 3.8 05:40:24 19° SW 05:43:19 72° SE 05:47:27 10° ENE
Cosmos 158 Rocket 4.2 05:40:30 18° SW 05:43:47 42° WNW 05:48:32 10° N
Cosmos 2181 Rocket 4.4 05:40:18 10° SW 05:46:07 40° WNW 05:52:04 10° N
STARLINK 1045 3.7 05:45:11 17° SW 05:48:18 77° SE 05:52:27 10° ENE
STARLINK 1047 4.0 05:47:56 30° WNW 05:49:14 40° NNW 05:52:53 10° NE
Cosmos 2333 Rocket 3.7 05:44:52 10° S 05:50:12 41° ESE 05:55:34 10° NE
STARLINK 1037 4.0 05:50:17 28° WNW 05:51:42 40° NNW 05:55:20 10° NE
Cosmos 1076 Rocket 3.7 05:47:32 10° N 05:51:56 76° E 05:56:17 10° SSE
STARLINK 1050 3.6 05:50:12 16° SW 05:53:25 86° SSE 05:57:34 10° ENE
FENGYUN 3A 3.8 05:48:38 10° N 05:53:50 49° WNW 05:59:02 10° SW
Cosmos 1340 Rocket 3.1 05:50:09 10° S 05:54:01 69° E 05:57:55 10° NNE
Okean O Rocket 1.5 05:49:54 10° N 05:54:21 73° WNW 05:58:44 10° SSW
ALOS 2.7 05:50:47 10° N 05:55:08 39° WNW 05:59:27 10° SW
STARLINK-29 4.4 05:54:14 24° WSW 05:55:14 28° SW 05:58:17 10° SSE
Cosmos 2058 Rocket 3.8 05:51:25 10° SW 05:55:14 29° WNW 05:59:06 10° NNW
STARLINK 1059 4.1 05:53:50 26° WNW 05:55:26 39° NNW 05:59:02 10° NE
Lacrosse 5 rocket 2.4 05:52:51 16° NW 05:56:12 44° NNE 06:00:24 10° ESE
STARLINK 1040 4.1 05:57:11 22° NNW 05:57:45 23° N 06:00:08 10° NE
STARLINK-52 4.3 05:56:51 23° WSW 05:58:02 29° SW 06:01:06 10° SSE
STARLINK 1055 3.6 05:54:55 15° WSW 05:58:19 89° NW 06:02:29 10° ENE
STARLINK 1057 4.1 05:57:24 24° WNW 05:59:09 37° NNW 06:02:45 10° NE
STARLINK-80 4.1 05:59:18 19° NW 06:01:45 45° NNE 06:05:24 10° E
STARLINK 1052 4.2 06:00:58 22° WNW 06:02:54 36° NNW 06:06:29 10° NE
Cosmos 371 Rocket 4.0 05:58:28 10° NNW 06:03:14 54° ENE 06:07:57 10° SE
STARLINK 1022 3.5 05:59:41 13° WSW 06:03:18 84° NNW 06:07:28 10° ENE
CZ-2C R/B 4.3 06:01:39 10° NNW 06:02:54 12° NW 06:02:54 12° NW
STARLINK 1014 4.2 06:03:02 21° NW 06:04:09 26° NNW 06:06:50 10° NE
Cosmos 2151 4.4 06:01:16 10° N 06:05:21 41° ENE 06:09:25 10° SSE
Cosmos 1867 3.9 06:00:24 10° NNW 06:05:51 65° NE 06:11:15 10° SE
COSMO-SKYMED 1 3.9 06:02:56 10° SW 06:06:08 20° W 06:07:34 17° WNW
CZ-3 R/B 4.1 05:54:02 11° W 06:06:20 22° SW 06:12:14 10° S
STARLINK 1068 4.2 06:04:32 20° WNW 06:06:38 36° NNW 06:10:12 10° NE
Envisat 4.4 06:01:54 10° NNE 06:06:44 42° E 06:11:31 10° SSE
Cosmos 1821 Rocket 3.9 06:00:36 10° NNW 06:06:46 76° W 06:12:48 10° S
Cosmos 1300 2.8 06:03:31 10° SSW 06:07:13 48° WNW 06:10:57 10° N
STARLINK 1042 3.5 06:04:25 12° WSW 06:08:14 79° NNW 06:12:24 10° ENE
Cosmos 2360 Rocket 2.3 06:03:52 10° SW 06:09:27 57° WNW 06:15:04 10° NNE
SL-16 R/B 3.0 06:05:03 12° WSW 06:09:34 29° NW 06:14:30 10° N
ATLAS 2AS CENTAUR R/B 3.8 06:05:34 15° W 06:11:31 34° NNW 06:18:36 10° NNE
Cosmos 1452 Rocket 3.5 06:06:45 10° NNW 06:11:57 63° WSW 06:17:07 10° S
Cosmos 2219 Rocket 3.0 06:06:27 10° S 06:11:59 57° ESE 06:17:33 10° NNE
Nadezhda 3 Rocket 3.9 06:06:16 10° SSW 06:12:24 71° W 06:18:38 10° N
STARLINK 1056 3.6 06:09:16 11° WSW 06:13:16 74° NNW 06:17:27 10° ENE
STARLINK 1060 4.3 06:11:42 17° WNW 06:14:08 34° NNW 06:17:40 10° NE
H-2A R/B 2.7 06:10:23 10° N 06:14:19 84° W 06:18:09 10° SSW
Cosmos 2333 4.3 06:09:33 10° SSW 06:15:21 86° ESE 06:21:10 10° NNE
Cosmos 2322 3.7 06:10:49 10° SSW 06:16:29 84° WNW 06:22:12 10° NNE
Cosmos 1980 Rocket 4.0 06:15:57 11° NW 06:17:28 12° NW 06:19:26 10° NNW
STARLINK 1030 4.3 06:15:18 16° WNW 06:17:54 33° NNW 06:21:26 10° NE
STARLINK 1054 3.6 06:14:05 10° WSW 06:18:13 70° NNW 06:22:22 10° ENE
Cosmos 2058 2.9 06:14:09 10° NNW 06:18:21 65° W 06:22:30 10° S
OE (NEXTSAT) 4.3 06:16:23 15° W 06:19:15 89° S 06:22:46 10° E
Cosmos 1455 3.5 06:15:41 10° SSE 06:19:22 44° E 06:23:05 10° NNE
Cosmos 2084 Rocket 3.9 06:15:05 10° SSW 06:19:24 68° SE 06:23:50 10° NE
CZ-4B R/B 3.3 06:15:54 10° N 06:21:14 52° WNW 06:26:27 10° SW
STARLINK 1020 4.4 06:18:56 14° WNW 06:21:43 33° NNW 06:25:13 10° NE
STARLINK 1062 3.6 06:19:04 10° WSW 06:23:11 66° NNW 06:27:20 10° ENE
STARLINK 1035 4.4 06:22:11 13° WNW 06:24:49 30° N 06:28:03 10° NE
Cosmos 1437 3.8 06:22:45 10° NW 06:25:13 23° W 06:27:41 10° SSW
STARLINK 1034 4.4 06:22:33 13° WNW 06:25:30 32° N 06:29:01 10° NE
Cosmos 1844 3.8 06:20:04 10° NW 06:25:31 57° WSW 06:30:56 10° S
CORIOLIS 4.4 06:20:19 10° NNE 06:25:42 75° ESE 06:31:04 10° S
STARLINK 1053 3.7 06:24:08 10° WSW 06:28:15 62° NNW 06:32:23 10° ENE
EXPRESS MD2 2.3 06:26:53 13° WNW 06:29:16 58° NNE 06:31:23 10° E
STARLINK 1027 4.4 06:26:40 12° WNW 06:29:31 29° N 06:32:43 10° NE
STARLINK 1033 4.5 06:29:52 11° WNW 06:33:10 31° N 06:36:39 10° NE
STARLINK 1061 3.7 06:29:09 10° WSW 06:33:14 59° NNW 06:37:21 10° NE
STARLINK 1029 4.4 06:30:52 11° WNW 06:33:21 24° N 06:36:00 10° NE
Helios 1A Rocket 3.5 06:30:24 10° N 06:34:13 36° WNW 06:38:01 10° SW
STARLINK-43 3.4 06:33:01 10° WNW 06:36:43 68° SW 06:40:24 10° SE
Cosmos 1934 Rocket 4.0 06:31:05 10° NNW 06:37:12 72° W 06:43:23 10° S
BREEZE M DEB (TANK) 3.6 06:25:33 10° WNW 06:37:40 65° SW 06:41:12 10° SE
STARLINK 1067 3.8 06:34:08 10° WSW 06:38:13 56° NNW 06:42:19 10° NE
BREEZE-M DEB (TANK) 4.3 06:35:52 10° WNW 06:40:30 73° NNE 06:59:15 10° E
STARLINK-48 3.9 06:37:33 10° NW 06:41:24 56° NNE 06:45:14 10° ESE
Cosmos-2242 3.0 06:37:25 10° SSW 06:41:48 79° W 06:46:12 10° N
In-Cosmos 22 Rocket 4.4 06:37:47 10° NNW 06:42:51 45° W 06:47:52 10° SSW
STARLINK 1058 3.9 06:39:06 10° W 06:43:09 53° NNW 06:47:15 10° NE
Cosmos 1892 2.9 06:39:31 10° NNW 06:43:12 48° W 06:46:51 10° S
CZ-4 R/B 3.0 06:40:07 10° NNE 06:44:09 42° E 06:48:06 10° S
Cosmos 1766 Rocket 3.6 06:40:08 10° N 06:44:29 87° E 06:48:49 10° S
COSMOS 2428 2.8 06:40:22 10° SSW 06:46:05 84° WNW 06:51:53 10° NNE
